1517140800.12,43939,9.44,73922.0,-2.37,-3.15,-3.19,0,*5E
1517140801.34,43940,9.44,73918.8,-2.37,-3.11,-3.19,0,*54
1517140802.57,43941,9.44,73922.3,-2.37,-3.15,-3.15,0,*5D
1517140803.79,43942,9.44,73920.3,-2.37,-3.11,-3.11,0,*5E
1517140805.0,43943,9.44,73922.5,-2.35,-2.99,-2.99,0,*5D
1517140806.19,43944,9.44,73924.5,-2.35,-2.87,-2.87,0,*5A
1517140807.42,43945,9.44,73926.0,-2.37,-2.99,-2.87,0,*56
1517140808.61,43946,9.44,73924.0,-2.35,-2.83,-2.83,0,*58
1517140809.81,43947,9.44,73926.8,-2.35,-3.11,-3.07,0,*5E
1517140811.05,43948,9.44,73920.0,-2.33,-2.95,-2.99,0,*5C
1517140812.27,43949,9.44,73926.0,-2.33,-3.11,-3.11,0,*51
1517140813.5,43950,9.44,73922.5,-2.33,-3.11,-3.11,0,*59
1517140814.72,43951,9.44,73926.0,-2.33,-3.35,-3.23,0,*5F
1517140815.94,43952,9.44,73924.0,-2.33,-3.15,-3.15,0,*5B
1517140817.17,43953,9.44,73924.3,-2.33,-2.99,-2.99,0,*5A
1517140818.4,43954,9.44,73926.5,-2.33,-2.95,-2.87,0,*5E
1517140819.6,43955,9.44,73922.0,-2.31,-3.07,-3.07,0,*5E
1517140820.8,43956,9.44,73922.8,-2.31,-3.23,-3.31,0,*5E
1517140822.02,43957,9.44,73918.3,-2.33,-3.15,-3.15,0,*5E
1517140823.23,43958,9.44,73918.0,-2.31,-3.03,-3.11,0,*50
1517140824.42,43959,9.44,73920.0,-2.31,-2.83,-2.83,0,*52
1517140825.64,43960,9.44,73918.8,-2.33,-2.83,-2.87,0,*5E
1517140826.9,43961,9.44,73922.8,-2.31,-2.67,-2.67,0,*59
1517140828.13,43962,9.44,73924.3,-2.31,-2.47,-2.43,0,*5E
1517140829.33,43963,9.44,73920.8,-2.31,-2.35,-2.43,0,*5A
1517140830.6,43964,9.44,73920.0,-2.29,-2.55,-2.47,0,*56
1517140831.83,43965,9.44,73912.0,-2.29,-3.03,-2.95,0,*5A
1517140833.08,43966,9.44,73912.8,-2.27,-2.67,-2.63,0,*5D
1517140834.27,43967,9.44,73908.0,-2.27,-3.07,-3.15,0,*5B
1517140835.47,43968,9.44,73906.5,-2.27,-3.07,-3.07,0,*57
1517140836.67,43969,9.44,73896.5,-2.27,-2.91,-2.87,0,*51
1517140837.87,43970,9.44,73906.5,-2.23,-2.99,-3.03,0,*58
1517140839.06,43971,9.44,73900.3,-2.27,-3.15,-3.15,0,*5F
1517140840.28,43972,9.44,73902.3,-2.29,-3.19,-3.19,0,*52
1517140841.48,43973,9.44,73908.5,-2.27,-3.07,-3.07,0,*5D
1517140842.68,43974,9.44,73904.5,-2.27,-3.07,-3.07,0,*5A
1517140843.88,43975,9.44,73904.8,-2.27,-2.87,-2.87,0,*5B
1517140845.07,43976,9.44,73906.0,-2.23,-2.91,-3.03,0,*56
1517140846.33,43977,9.44,73904.8,-2.23,-2.75,-2.75,0,*5D
1517140847.52,43978,9.44,73900.0,-2.23,-3.19,-3.19,0,*52
1517140848.72,43979,9.44,73902.0,-2.23,-3.15,-3.19,0,*5F
1517140849.92,43980,9.44,73902.0,-2.23,-3.03,-3.07,0,*51
1517140851.12,43981,9.44,73904.5,-2.23,-3.15,-3.19,0,*58
1517140852.32,43982,9.44,73910.0,-2.23,-2.99,-2.99,0,*57
1517140853.54,43983,9.44,73910.0,-2.21,-3.11,-3.11,0,*54
1517140854.76,43984,9.44,73912.0,-2.21,-3.11,-3.15,0,*57
1517140855.96,43985,9.44,73918.3,-2.23,-3.03,-3.03,0,*50
1517140857.18,43986,9.44,73918.0,-2.21,-3.11,-3.11,0,*51
1517140858.38,43987,9.44,73910.0,-2.23,-3.19,-3.27,0,*5F
1517140859.58,43988,9.44,73912.0,-2.23,-3.07,-3.15,0,*5E
1517140860.8,43989,9.44,73912.5,-2.21,-2.83,-2.83,0,*5E
1517140862.02,43990,9.44,73920.0,-2.21,-2.95,-2.83,0,*51
1517140863.22,43991,9.44,73922.0,-2.23,-3.27,-3.31,0,*52
1517140864.45,43992,9.44,73930.5,-2.21,-2.99,-3.03,0,*56
1517140865.67,43993,9.44,73928.8,-2.21,-3.11,-3.15,0,*51
1517140866.87,43994,9.44,73930.5,-2.23,-3.39,-3.39,0,*50
1517140868.09,43995,9.44,73928.5,-2.21,-3.11,-3.15,0,*57
1517140869.29,43996,9.44,73928.3,-2.23,-3.07,-3.07,0,*52
1517140870.49,43997,9.44,73932.3,-2.23,-2.91,-2.99,0,*5B
1517140871.71,43998,9.44,73930.5,-2.21,-3.11,-3.03,0,*5D
1517140872.94,43999,9.44,73924.8,-2.21,-3.75,-3.87,0,*52
1517140874.19,44000,9.44,73920.3,-2.19,-4.01,-4.01,0,*5A
1517140875.4,44001,9.44,73920.5,-2.23,-4.21,-4.21,0,*52
1517140876.61,44002,9.44,73912.0,-2.23,-4.29,-4.21,0,*59
1517140877.81,44003,9.44,73906.0,-2.23,-4.21,-4.09,0,*5A
1517140879.04,44004,9.44,73904.3,-2.29,-3.95,-3.91,0,*59
1517140880.27,44005,9.44,73900.0,-2.27,-3.31,-3.43,0,*57
1517140881.51,44006,9.44,73882.8,-2.27,-3.55,-3.51,0,*55
1517140882.75,44007,9.44,73872.3,-2.27,-3.55,-3.55,0,*50
1517140884.02,44008,9.44,73886.8,-2.29,-3.47,-3.47,0,*51
1517140885.22,44009,9.44,73880.0,-2.27,-3.31,-3.31,0,*5E
1517140886.46,44010,9.44,73868.3,-2.29,-3.71,-3.79,0,*50
1517140887.73,44011,9.44,73874.0,-2.29,-3.55,-3.55,0,*59
1517140889.0,44012,9.44,73856.8,-2.29,-3.47,-3.43,0,*5E
1517140890.2,44013,9.44,73872.3,-2.27,-3.31,-3.27,0,*52
1517140891.45,44014,9.44,73876.8,-2.27,-3.51,-3.55,0,*56
1517140892.69,44015,9.44,73904.3,-2.27,-3.43,-3.43,0,*53
1517140893.93,44016,9.44,73932.3,-2.27,-3.55,-3.55,0,*50
1517140895.14,44017,9.44,73898.5,-2.27,-3.79,-3.79,0,*51
1517140896.38,44018,9.44,73884.5,-2.29,-4.21,-4.21,0,*50
1517140897.59,44019,9.38,73886.0,-2.29,-4.45,-4.45,0,*51
1517140898.82,44020,9.44,73902.3,-2.29,-4.33,-4.25,0,*5C
1517140900.1,44021,9.44,73894.8,-2.33,-4.01,-4.01,0,*51
1517140901.32,44022,9.44,73912.3,-2.31,-3.91,-3.91,0,*50
1517140902.54,44023,9.44,73918.5,-2.33,-3.87,-3.83,0,*57
1517140903.8,44024,9.44,73912.8,-2.31,-4.01,-4.01,0,*56
1517140905.08,44025,9.44,73938.0,-2.33,-4.01,-4.01,0,*55
1517140906.32,44026,9.44,73930.8,-2.33,-3.75,-3.75,0,*56
1517140907.55,44027,9.44,73910.5,-2.33,-3.35,-3.35,0,*57
1517140908.82,44028,9.44,73904.5,-2.33,-3.59,-3.59,0,*58
1517140910.09,44029,9.44,73900.0,-2.33,-3.63,-3.63,0,*59
1517140911.36,44030,9.44,73900.0,-2.33,-3.51,-3.47,0,*56
1517140912.56,44031,9.44,73910.3,-2.31,-3.19,-3.23,0,*5B
1517140913.75,44032,9.44,73912.0,-2.31,-2.91,-2.91,0,*51
1517140914.97,44033,9.44,73908.0,-2.31,-2.95,-2.95,0,*50
1517140916.16,44034,9.44,73906.3,-2.31,-3.19,-3.19,0,*57
1517140917.37,44035,9.44,73896.0,-2.31,-3.11,-3.11,0,*56
1517140918.57,44036,9.44,73892.3,-2.31,-3.11,-3.07,0,*52
1517140919.77,44037,9.44,73906.8,-2.31,-3.11,-3.19,0,*5C
1517140920.99,44038,9.44,73918.5,-2.29,-3.03,-3.03,0,*52
1517140922.21,44039,9.44,73918.8,-2.29,-3.31,-3.31,0,*53
1517140923.44,44040,9.44,73936.8,-2.29,-3.31,-3.35,0,*59
1517140924.67,44041,9.44,73922.5,-2.29,-3.83,-3.83,0,*5C
1517140925.89,44042,9.44,73924.0,-2.29,-4.13,-4.13,0,*5F
1517140927.12,44043,9.44,73922.3,-2.31,-4.09,-4.01,0,*5F
1517140928.33,44044,9.44,73926.8,-2.31,-3.95,-3.95,0,*50
1517140929.56,44045,9.44,73904.0,-2.31,-4.01,-4.09,0,*59
1517140930.79,44046,9.44,73876.5,-2.33,-4.41,-4.37,0,*51
1517140932.02,44047,9.44,73856.5,-2.33,-4.25,-4.37,0,*52
1517140933.24,44048,9.44,73858.8,-2.33,-4.53,-4.49,0,*55
1517140934.51,44049,9.44,73830.5,-2.37,-4.69,-4.69,0,*5B
1517140935.74,44050,9.44,73840.3,-2.37,-4.29,-4.41,0,*5D
1517140936.94,44051,9.44,73844.5,-2.35,-4.29,-4.17,0,*5D
1517140938.16,44052,9.44,73872.3,-2.37,-3.39,-3.31,0,*59
1517140939.39,44053,9.44,73888.8,-2.37,-3.27,-3.31,0,*57
1517140940.66,44054,9.44,73882.3,-2.37,-3.63,-3.63,0,*57
1517140941.89,44055,9.44,73904.0,-2.37,-3.87,-3.87,0,*56
1517140943.09,44056,9.44,73876.3,-2.35,-3.87,-3.91,0,*50
1517140944.3,44057,9.44,73912.8,-2.35,-4.25,-4.21,0,*52
1517140945.53,44058,9.44,73892.0,-2.37,-4.33,-4.41,0,*5E
1517140946.75,44059,9.44,73884.0,-2.37,-4.45,-4.41,0,*5E
1517140947.96,44060,9.44,73900.5,-2.39,-4.57,-4.57,0,*5E
1517140949.16,44061,9.44,73884.5,-2.39,-4.49,-4.57,0,*50
1517140950.43,44062,9.44,73884.5,-2.41,-4.85,-4.85,0,*53
1517140951.7,44063,9.44,73888.5,-2.41,-4.81,-4.81,0,*52
1517140952.97,44064,9.44,73908.3,-2.41,-4.81,-4.81,0,*55
1517140954.17,44065,9.44,73910.8,-2.45,-4.65,-4.65,0,*50
1517140955.42,44066,9.44,73914.5,-2.43,-4.85,-4.85,0,*55
1517140956.64,44067,9.44,73886.3,-2.45,-5.31,-5.39,0,*5A
1517140957.86,44068,9.44,73852.0,-2.45,-5.31,-5.39,0,*55
1517140959.14,44069,9.44,73838.0,-2.51,-5.23,-5.23,0,*59
1517140960.34,44070,9.44,73844.3,-2.49,-4.65,-4.65,0,*58
1517140961.56,44071,9.44,73868.0,-2.51,-4.17,-4.13,0,*54
1517140962.8,44072,9.44,73874.3,-2.51,-3.75,-3.67,0,*50
1517140964.07,44073,9.44,73890.0,-2.51,-3.55,-3.51,0,*56
1517140965.3,44074,9.44,73898.3,-2.51,-3.79,-3.75,0,*59
1517140966.53,44075,9.44,73902.5,-2.49,-3.63,-3.55,0,*58
1517140967.73,44076,9.44,73898.3,-2.49,-3.31,-3.31,0,*5E
1517140968.95,44077,9.44,73916.3,-2.51,-3.39,-3.31,0,*5E
1517140970.13,44078,9.44,73914.5,-2.49,-3.23,-3.23,0,*50
1517140971.31,44079,9.44,73920.8,-2.49,-2.91,-2.91,0,*51
1517140972.51,44080,9.44,73918.3,-2.49,-3.27,-3.27,0,*57
1517140973.71,44081,9.44,73916.5,-2.49,-3.27,-3.27,0,*56
1517140974.9,44082,9.44,73926.5,-2.43,-3.19,-3.19,0,*5F
1517140976.09,44083,9.44,73934.3,-2.43,-3.23,-3.23,0,*5E
1517140977.28,44084,9.44,73938.0,-2.45,-3.27,-3.23,0,*5B
1517140978.49,44085,9.44,73948.3,-2.43,-2.95,-2.87,0,*5B
1517140979.69,44086,9.44,73942.5,-2.43,-3.35,-3.23,0,*5C
1517140980.92,44087,9.44,73936.8,-2.41,-3.91,-3.91,0,*58
1517140982.15,44088,9.44,73934.0,-2.41,-3.79,-3.83,0,*52
1517140983.38,44089,9.44,73916.3,-2.41,-4.21,-4.25,0,*52
1517140984.58,44090,9.44,73910.8,-2.45,-4.37,-4.37,0,*5A
1517140985.77,44091,9.44,73918.8,-2.45,-4.13,-4.17,0,*5F
1517140986.97,44092,9.44,73914.0,-2.43,-4.13,-4.13,0,*5E
1517140988.17,44093,9.44,73916.5,-2.45,-4.09,-4.13,0,*52
1517140989.36,44094,9.44,73912.8,-2.45,-4.25,-4.17,0,*5F
1517140990.56,44095,9.44,73924.0,-2.45,-4.37,-4.25,0,*5C
1517140991.75,44096,9.44,73920.0,-2.45,-4.17,-4.17,0,*5C
1517140992.94,44097,9.44,73922.0,-2.45,-4.13,-4.09,0,*56
1517140994.15,44098,9.44,73928.8,-2.49,-4.21,-4.21,0,*5E
1517140995.35,44099,9.44,73928.0,-2.49,-4.57,-4.57,0,*5F
1517140996.56,44100,9.44,73906.5,-2.51,-4.53,-4.41,0,*54
1517140997.76,44101,9.44,73920.5,-2.49,-4.57,-4.57,0,*5F
1517140998.96,44102,9.44,73920.5,-2.49,-4.65,-4.65,0,*5C
1517141000.2,44103,9.44,73922.8,-2.53,-4.81,-4.81,0,*56
1517141001.44,44104,9.44,73924.8,-2.53,-4.85,-4.85,0,*51
1517141002.71,44105,9.44,73936.3,-2.55,-4.73,-4.73,0,*56
1517141003.97,44106,9.44,73934.8,-2.55,-4.85,-4.93,0,*52
1517141005.2,44107,9.44,73940.3,-2.55,-4.57,-4.57,0,*54
1517141006.46,44108,9.44,73934.8,-2.55,-4.73,-4.73,0,*5B
1517141007.68,44109,9.44,73906.5,-2.55,-4.33,-4.33,0,*5A
1517141008.88,44110,9.44,73916.8,-2.57,-4.53,-4.65,0,*55
1517141010.1,44111,9.44,73926.0,-2.59,-4.53,-4.53,0,*5F
1517141011.3,44112,9.44,73918.3,-2.57,-4.29,-4.37,0,*5D
1517141012.51,44113,9.44,73922.0,-2.59,-4.17,-4.17,0,*5D
1517141013.74,44114,9.44,73928.5,-2.59,-3.91,-3.87,0,*5D
1517141014.97,44115,9.44,73924.5,-2.59,-4.29,-4.29,0,*5B
1517141016.16,44116,9.44,73918.8,-2.57,-4.37,-4.41,0,*57
1517141017.41,44117,9.44,73918.8,-2.59,-4.01,-3.87,0,*50
1517141018.64,44118,9.44,73920.3,-2.59,-3.75,-3.75,0,*56
1517141019.91,44119,9.44,73918.3,-2.59,-3.63,-3.55,0,*52
1517141021.15,44120,9.44,73914.3,-2.57,-3.59,-3.51,0,*5B
1517141022.4,44121,9.44,73912.0,-2.57,-3.59,-3.59,0,*52
1517141023.6,44122,9.44,73916.0,-2.57,-3.83,-3.87,0,*55
1517141024.79,44123,9.44,73918.0,-2.57,-3.95,-3.87,0,*53
1517141025.99,44124,9.44,73918.3,-2.57,-3.39,-3.39,0,*57
1517141027.17,44125,9.44,73928.8,-2.57,-3.23,-3.23,0,*56
1517141028.43,44126,9.44,73934.0,-2.55,-3.47,-3.55,0,*54
1517141029.65,44127,9.44,73930.5,-2.55,-3.35,-3.35,0,*56
1517141030.88,44128,9.44,73938.5,-2.55,-3.27,-3.27,0,*59
1517141032.08,44129,9.44,73940.0,-2.53,-3.27,-3.27,0,*5E
1517141033.3,44130,9.44,73940.0,-2.53,-3.43,-3.35,0,*57
1517141034.5,44131,9.44,73920.5,-2.53,-4.09,-4.05,0,*5B
1517141035.71,44132,9.44,73924.3,-2.55,-4.09,-4.17,0,*5D
1517141036.91,44133,9.44,73884.8,-2.53,-4.33,-4.33,0,*55
1517141038.14,44134,9.44,73882.8,-2.55,-4.21,-4.25,0,*50
1517141039.34,44135,9.44,73870.0,-2.53,-4.25,-4.33,0,*54
1517141040.54,44136,9.44,73864.8,-2.57,-4.21,-4.25,0,*50
1517141041.76,44137,9.44,73868.5,-2.55,-4.45,-4.37,0,*52
1517141042.96,44138,9.44,73884.8,-2.57,-4.65,-4.65,0,*5A
1517141044.22,44139,9.44,73890.0,-2.59,-4.77,-4.77,0,*55
1517141045.42,44140,9.44,73870.8,-2.57,-4.57,-4.57,0,*55
1517141046.69,44141,9.44,73860.3,-2.59,-4.81,-4.81,0,*5A
1517141047.95,44142,9.44,73848.3,-2.59,-4.93,-4.93,0,*59
1517141049.21,44143,9.44,73842.3,-2.61,-5.03,-5.07,0,*57
1517141050.46,44144,9.44,73828.0,-2.63,-4.99,-5.07,0,*50
1517141051.71,44145,9.44,73838.8,-2.63,-5.07,-4.99,0,*51
1517141052.97,44146,9.44,73840.5,-2.63,-4.93,-4.93,0,*54
1517141054.21,44147,9.44,73886.5,-2.65,-4.85,-4.93,0,*54
1517141055.48,44148,9.44,73884.0,-2.67,-4.73,-4.85,0,*57
1517141056.68,44149,9.44,73894.8,-2.65,-4.57,-4.61,0,*58
1517141057.88,44150,9.44,73910.5,-2.65,-4.61,-4.53,0,*54
1517141059.11,44151,9.44,73922.3,-2.67,-4.33,-4.33,0,*56
1517141060.3,44152,9.44,73926.8,-2.65,-4.05,-3.95,0,*59
1517141061.49,44153,9.44,73936.5,-2.65,-4.09,-4.17,0,*59
1517141062.72,44154,9.44,73932.0,-2.67,-4.13,-4.13,0,*53
1517141063.91,44155,9.44,73922.8,-2.65,-4.17,-4.17,0,*50
1517141065.14,44156,9.44,73918.3,-2.67,-4.33,-4.25,0,*56
1517141066.34,44157,9.44,73914.5,-2.65,-4.21,-4.21,0,*52
1517141067.57,44158,9.44,73914.3,-2.67,-4.13,-4.21,0,*5E
1517141068.78,44159,9.44,73910.8,-2.65,-3.27,-3.27,0,*5C
1517141069.97,44160,9.44,73904.0,-2.65,-3.15,-3.15,0,*56
1517141071.21,44161,9.5,73912.3,-2.65,-3.67,-3.67,0,*57
1517141072.4,44162,9.44,73914.0,-2.65,-3.27,-3.31,0,*53
1517141073.63,44163,9.44,73898.0,-2.63,-3.15,-3.27,0,*52
1517141074.88,44164,9.44,73896.8,-2.61,-3.63,-3.63,0,*56
1517141076.14,44165,9.44,73900.0,-2.63,-3.47,-3.47,0,*55
1517141077.39,44166,9.44,73912.8,-2.63,-3.79,-3.71,0,*5E
1517141078.63,44167,9.44,73916.8,-2.63,-3.91,-3.91,0,*57
1517141079.83,44168,9.5,73924.5,-2.61,-3.79,-3.87,0,*5B
1517141081.07,44169,9.44,73922.0,-2.61,-3.47,-3.43,0,*5F
1517141082.34,44170,9.44,73920.3,-2.59,-3.63,-3.63,0,*58
1517141083.58,44171,9.44,73916.8,-2.61,-3.67,-3.63,0,*56
1517141084.82,44172,9.44,73888.0,-2.61,-3.51,-3.43,0,*52
1517141086.02,44173,9.44,73886.5,-2.61,-3.15,-3.15,0,*50
1517141087.24,44174,9.44,73894.5,-2.59,-3.27,-3.35,0,*5F
1517141088.44,44175,9.44,73904.3,-2.57,-3.39,-3.35,0,*5F
1517141089.66,44176,9.44,73906.3,-2.59,-3.39,-3.39,0,*5E
1517141090.86,44177,9.44,73910.0,-2.57,-3.35,-3.35,0,*51
1517141092.05,44178,9.44,73916.8,-2.57,-3.39,-3.35,0,*52
1517141093.28,44179,9.44,73918.0,-2.57,-3.63,-3.75,0,*58
1517141094.5,44180,9.44,73912.5,-2.57,-3.51,-3.75,0,*5F
1517141095.68,44181,9.44,73904.0,-2.57,-3.23,-3.23,0,*58
1517141096.87,44182,9.44,73896.8,-2.57,-3.31,-3.19,0,*51
1517141098.1,44183,9.44,73902.0,-2.59,-3.27,-3.27,0,*54
1517141099.29,44184,9.44,73902.0,-2.57,-3.11,-3.11,0,*5D
1517141100.51,44185,9.44,73888.0,-2.55,-1.79,-1.55,0,*50
1517141101.75,44186,9.44,73910.8,-2.53,-2.67,-2.59,0,*56
1517141102.94,44187,9.44,73920.0,-2.53,-2.43,-2.43,0,*5A
1517141104.14,44188,9.5,73956.8,-2.49,-2.99,-2.99,0,*5E
1517141105.39,44189,9.44,73912.0,-2.49,-4.01,-4.01,0,*5F
1517141106.62,44190,9.44,73914.8,-2.51,-3.75,-3.79,0,*52
1517141107.86,44191,9.44,73914.8,-2.49,-3.51,-3.43,0,*55
1517141109.07,44192,9.44,73920.8,-2.51,-3.23,-3.27,0,*58
1517141110.26,44193,9.5,73930.5,-2.49,-2.91,-2.91,0,*54
1517141111.52,44194,9.44,73912.8,-2.51,-3.43,-3.51,0,*59
1517141112.74,44195,9.44,73916.8,-2.51,-3.31,-3.31,0,*5B
1517141113.98,44196,9.44,73910.3,-2.49,-3.43,-3.43,0,*51
1517141115.23,44197,9.44,73918.0,-2.51,-4.01,-3.91,0,*57
1517141116.46,44198,9.44,73920.3,-2.51,-3.79,-3.91,0,*50
1517141117.69,44199,9.5,73914.5,-2.51,-3.75,-3.75,0,*57
1517141118.89,44200,9.44,73900.3,-2.49,-3.91,-3.91,0,*5D
1517141120.12,44201,9.44,73916.0,-2.51,-3.87,-3.79,0,*54
1517141121.34,44202,9.5,73918.3,-2.51,-3.91,-3.87,0,*51
1517141122.57,44203,9.44,73908.3,-2.51,-3.79,-3.79,0,*57
1517141123.81,44204,9.44,73906.5,-2.53,-3.71,-3.67,0,*55
1517141125.02,44205,9.44,73896.5,-2.53,-3.91,-3.91,0,*53
1517141126.21,44206,9.44,73886.3,-2.53,-2.43,-2.39,0,*5D
1517141127.43,44207,9.44,73882.8,-2.53,-2.55,-2.43,0,*56
1517141128.65,44208,9.44,73882.8,-2.51,-3.11,-3.03,0,*5F
1517141129.87,44209,9.44,73880.0,-2.51,-3.03,-2.99,0,*5F
1517141131.06,44210,9.44,73914.5,-2.49,-3.03,-3.03,0,*5C
1517141132.28,44211,9.5,73914.0,-2.49,-2.11,-2.39,0,*57
1517141133.48,44212,9.44,73912.5,-2.45,-2.99,-3.19,0,*5B
1517141134.68,44213,9.44,73904.0,-2.45,-3.75,-3.83,0,*5A
1517141135.88,44214,9.44,73900.8,-2.45,-3.83,-3.87,0,*50
1517141137.13,44215,9.44,73898.3,-2.49,-4.01,-4.01,0,*59
1517141138.34,44216,9.44,73892.8,-2.51,-4.17,-4.17,0,*53
1517141139.57,44217,9.44,73890.0,-2.51,-3.79,-3.75,0,*5E
1517141140.79,44218,9.44,73870.3,-2.51,-3.31,-3.31,0,*5D
1517141141.99,44219,9.44,73880.8,-2.49,-3.27,-3.27,0,*55
1517141143.18,44220,9.44,73882.5,-2.49,-3.31,-3.31,0,*5F
1517141144.4,44221,9.44,73888.8,-2.51,-3.03,-3.03,0,*57
1517141145.59,44222,9.44,73906.5,-2.49,-3.11,-3.15,0,*59
1517141146.79,44223,9.44,73916.8,-2.45,-3.11,-3.11,0,*50
1517141147.98,44224,9.44,73926.3,-2.45,-2.99,-2.99,0,*57
1517141149.17,44225,9.5,73920.5,-2.45,-3.23,-3.23,0,*56
1517141150.35,44226,9.44,73926.5,-2.45,-3.23,-3.23,0,*55
1517141151.54,44227,9.5,73902.0,-2.45,-3.23,-3.23,0,*54
1517141152.74,44228,9.44,73900.5,-2.45,-3.27,-3.27,0,*5B
1517141153.94,44229,9.44,73898.5,-2.43,-3.35,-3.35,0,*5C
1517141155.14,44230,9.5,73910.5,-2.43,-3.87,-3.87,0,*54
1517141156.38,44231,9.44,73908.8,-2.45,-3.71,-3.71,0,*53
1517141157.58,44232,9.44,73924.3,-2.45,-3.27,-3.27,0,*50
1517141158.83,44233,9.44,73926.5,-2.43,-3.51,-3.51,0,*57
1517141160.03,44234,9.44,73942.0,-2.43,-3.83,-3.83,0,*50
1517141161.23,44235,9.44,73940.3,-2.45,-4.17,-4.17,0,*57
1517141162.42,44236,9.44,73940.0,-2.45,-4.29,-4.29,0,*54
1517141163.62,44237,9.44,73906.0,-2.45,-4.13,-4.17,0,*51
1517141164.8,44238,9.44,73932.5,-2.49,-4.45,-4.45,0,*56
1517141166.02,44239,9.44,73936.0,-2.51,-4.65,-4.65,0,*5E
1517141167.26,44240,9.44,73934.8,-2.51,-4.65,-4.77,0,*53
1517141168.48,44241,9.44,73924.8,-2.51,-4.53,-4.57,0,*55
1517141169.7,44242,9.44,73938.0,-2.51,-4.53,-4.53,0,*52
1517141170.92,44243,9.5,73934.5,-2.55,-4.61,-4.61,0,*57
1517141172.16,44244,9.44,73940.0,-2.55,-4.69,-4.61,0,*58
1517141173.38,44245,9.44,73928.0,-2.53,-4.99,-5.03,0,*55
1517141174.62,44246,9.44,73920.8,-2.55,-4.99,-4.93,0,*58
1517141175.89,44247,9.44,73926.3,-2.59,-4.81,-4.93,0,*5C
1517141177.12,44248,9.44,73932.3,-2.59,-4.57,-4.65,0,*51
1517141178.35,44249,9.44,73932.8,-2.59,-4.25,-4.29,0,*5D
1517141179.57,44250,9.5,73936.5,-2.59,-4.29,-4.33,0,*52
1517141180.8,44251,9.5,73938.3,-2.59,-4.29,-4.25,0,*54
1517141181.99,44252,9.44,73918.3,-2.61,-4.13,-4.25,0,*55
1517141183.19,44253,9.44,73914.3,-2.61,-4.25,-4.33,0,*56
1517141184.39,44254,9.44,73910.5,-2.61,-4.13,-4.13,0,*56
1517141185.58,44255,9.5,73930.5,-2.61,-4.45,-4.45,0,*57
1517141186.77,44256,9.44,73920.8,-2.61,-4.53,-4.53,0,*54
1517141188.01,44257,9.44,73914.8,-2.63,-4.21,-4.21,0,*57
1517141189.23,44258,9.44,73914.8,-2.63,-4.17,-4.05,0,*5B
1517141190.5,44259,9.44,73922.0,-2.63,-3.71,-3.59,0,*53
1517141191.7,44260,9.44,73928.5,-2.61,-3.39,-3.35,0,*5D
1517141192.97,44261,9.5,73932.8,-2.63,-3.43,-3.43,0,*52
1517141194.21,44262,9.5,73936.0,-2.61,-3.43,-3.43,0,*53
1517141195.4,44263,9.44,73944.8,-2.61,-3.23,-3.23,0,*52
1517141196.59,44264,9.5,73936.0,-2.61,-3.11,-3.03,0,*56
1517141197.79,44265,9.44,73938.5,-2.61,-3.15,-3.15,0,*54
1517141198.99,44266,9.44,73940.3,-2.57,-2.95,-2.99,0,*5E
1517141200.22,44267,9.44,73938.5,-2.59,-3.15,-3.27,0,*5C
1517141201.41,44268,9.44,73936.3,-2.57,-3.11,-3.11,0,*5C
1517141202.6,44269,9.44,73934.8,-2.57,-3.07,-3.11,0,*5A
1517141203.82,44270,9.5,73936.8,-2.55,-3.07,-3.15,0,*54
1517141205.03,44271,9.44,73934.0,-2.55,-3.19,-3.15,0,*5A
1517141206.3,44272,9.44,73936.3,-2.51,-3.51,-3.51,0,*51
1517141207.5,44273,9.44,73936.8,-2.53,-3.79,-3.79,0,*52
1517141208.73,44274,9.44,73936.8,-2.55,-3.95,-3.95,0,*53
1517141209.94,44275,9.44,73946.0,-2.55,-4.17,-4.17,0,*52
1517141211.18,44276,9.44,73932.5,-2.55,-4.21,-4.21,0,*51
1517141212.42,44277,9.44,73932.8,-2.55,-3.67,-3.79,0,*5F
1517141213.69,44278,9.44,73938.0,-2.59,-3.63,-3.63,0,*53
1517141214.89,44279,9.5,73942.8,-2.57,-2.95,-3.07,0,*56
1517141216.08,44280,9.44,73940.8,-2.57,-3.11,-3.19,0,*52
1517141217.34,44281,9.44,73938.5,-2.55,-3.43,-3.43,0,*59
1517141218.58,44282,9.44,73942.5,-2.53,-3.55,-3.55,0,*5C
1517141219.8,44283,9.5,73952.5,-2.55,-3.15,-3.15,0,*5B
1517141221.04,44284,9.44,73952.5,-2.53,-3.71,-3.71,0,*5A
1517141222.31,44285,9.44,73962.5,-2.55,-3.67,-3.59,0,*50
1517141223.55,44286,9.5,73958.3,-2.55,-3.35,-3.43,0,*5F
1517141224.76,44287,9.5,73950.0,-2.53,-3.79,-3.91,0,*5F
1517141225.96,44288,9.44,73934.8,-2.53,-3.91,-3.95,0,*52
1517141227.19,44289,9.44,73936.0,-2.55,-4.17,-4.21,0,*54
1517141228.42,44290,9.44,73930.3,-2.55,-4.21,-4.25,0,*5D
1517141229.63,44291,9.5,73928.3,-2.55,-4.09,-4.17,0,*57
1517141230.82,44292,9.44,73922.8,-2.57,-4.53,-4.53,0,*59
1517141232.1,44293,9.5,73930.8,-2.59,-4.89,-4.93,0,*5D
1517141233.37,44294,9.44,73916.3,-2.59,-4.89,-5.03,0,*52
1517141234.63,44295,9.44,73928.3,-2.61,-5.03,-5.07,0,*5F
1517141235.88,44296,9.44,73942.5,-2.61,-4.89,-5.03,0,*5B
1517141237.1,44297,9.44,73944.8,-2.61,-4.65,-4.69,0,*55
1517141238.37,44298,9.44,73944.5,-2.63,-4.73,-4.73,0,*54
1517141239.64,44299,9.5,73950.5,-2.63,-4.93,-4.93,0,*55
1517141240.88,44300,9.5,73928.0,-2.65,-4.69,-4.73,0,*59
1517141242.12,44301,9.44,73926.0,-2.65,-4.73,-4.69,0,*58
1517141243.31,44302,9.5,73922.8,-2.65,-4.45,-4.49,0,*5C
1517141244.51,44303,9.5,73930.5,-2.69,-4.61,-4.65,0,*59
1517141245.73,44304,9.44,73924.8,-2.67,-4.53,-4.65,0,*51
1517141246.96,44305,9.44,73920.0,-2.67,-4.41,-4.41,0,*55
1517141248.18,44306,9.44,73918.3,-2.67,-4.41,-4.41,0,*56
1517141249.39,44307,9.5,73916.0,-2.69,-4.21,-4.25,0,*5D
1517141250.61,44308,9.5,73914.8,-2.69,-4.21,-4.21,0,*56
1517141251.84,44309,9.5,73918.5,-2.69,-4.01,-4.09,0,*5F
1517141253.04,44310,9.44,73920.8,-2.69,-3.87,-3.87,0,*5F
1517141254.27,44311,9.5,73926.3,-2.69,-3.63,-3.75,0,*59
1517141255.48,44312,9.5,73928.3,-2.69,-3.35,-3.31,0,*59
1517141256.72,44313,9.44,73928.0,-2.69,-3.47,-3.47,0,*5C
1517141258.0,44314,9.5,73932.3,-2.67,-3.51,-3.59,0,*5D
1517141259.27,44315,9.5,73932.8,-2.67,-3.51,-3.51,0,*54
1517141260.54,44316,9.44,73934.5,-2.67,-3.51,-3.51,0,*57
1517141261.81,44317,9.5,73938.5,-2.67,-3.51,-3.51,0,*56
1517141263.08,44318,9.44,73936.3,-2.67,-3.47,-3.59,0,*56
1517141264.31,44319,9.44,73934.8,-2.67,-4.13,-4.21,0,*59
1517141265.51,44320,9.5,73936.0,-2.65,-3.95,-4.05,0,*5E
1517141266.77,44321,9.5,73940.0,-2.67,-4.01,-3.91,0,*5D
1517141268.0,44322,9.5,73940.0,-2.67,-3.83,-3.87,0,*54
1517141269.22,44323,9.5,73942.3,-2.65,-3.71,-3.79,0,*5B
1517141270.44,44324,9.5,73946.0,-2.67,-3.87,-3.87,0,*56
1517141271.68,44325,9.44,73942.5,-2.65,-3.55,-3.71,0,*53
1517141272.89,44326,9.44,73942.8,-2.65,-3.19,-3.43,0,*59
1517141274.1,44327,9.5,73934.8,-2.65,-3.91,-3.91,0,*57
1517141275.37,44328,9.5,73938.8,-2.63,-3.67,-3.59,0,*53
1517141276.63,44329,9.5,73938.5,-2.67,-4.01,-4.13,0,*58
1517141277.86,44330,9.44,73926.5,-2.67,-4.21,-4.13,0,*52
1517141279.06,44331,9.44,73930.8,-2.65,-4.29,-4.21,0,*58
1517141280.28,44332,9.44,73926.3,-2.67,-4.37,-4.41,0,*50
1517141281.5,44333,9.5,73930.0,-2.67,-4.37,-4.37,0,*50
1517141282.73,44334,9.5,73932.8,-2.67,-4.33,-4.25,0,*50
1517141283.96,44335,9.5,73932.8,-2.67,-4.33,-4.37,0,*52
1517141285.16,44336,9.5,73934.0,-2.69,-4.37,-4.37,0,*5B
1517141286.37,44337,9.5,73932.3,-2.69,-4.13,-4.21,0,*5B
1517141287.57,44338,9.44,73930.5,-2.73,-4.25,-4.25,0,*5E
1517141288.79,44339,9.5,73930.5,-2.69,-4.21,-4.21,0,*54
1517141289.99,44340,9.44,73926.8,-2.73,-4.13,-4.25,0,*54
1517141291.19,44341,9.44,73930.3,-2.69,-4.33,-4.33,0,*5B
1517141292.39,44342,9.5,73930.0,-2.73,-4.25,-4.25,0,*53
1517141293.6,44343,9.44,73928.0,-2.73,-4.25,-4.25,0,*52
1517141294.8,44344,9.5,73936.0,-2.73,-4.29,-4.37,0,*5A
1517141296.01,44345,9.5,73934.5,-2.69,-4.21,-4.25,0,*5B
1517141297.21,44346,9.44,73934.3,-2.73,-4.25,-4.25,0,*57
1517141298.44,44347,9.44,73932.0,-2.73,-4.01,-3.91,0,*58
1517141299.65,44348,9.5,73936.8,-2.73,-3.75,-3.79,0,*55
1517141300.86,44349,9.5,73936.3,-2.73,-3.91,-3.91,0,*58
1517141302.09,44350,9.5,73938.8,-2.73,-4.01,-4.13,0,*53
1517141303.29,44351,9.5,73940.3,-2.73,-3.75,-3.75,0,*51
1517141304.53,44352,9.5,73940.8,-2.73,-3.55,-3.55,0,*52
1517141305.77,44353,9.44,73940.3,-2.73,-3.55,-3.63,0,*56
1517141307.01,44354,9.5,73946.0,-2.73,-3.63,-3.67,0,*50
1517141308.21,44355,9.5,73942.8,-2.73,-4.25,-4.25,0,*55
1517141309.42,44356,9.5,73936.3,-2.69,-4.25,-4.33,0,*5A
1517141310.62,44357,9.44,73938.3,-2.73,-4.41,-4.53,0,*54
1517141311.81,44358,9.5,73938.3,-2.73,-4.41,-4.41,0,*58
1517141313.01,44359,9.44,73930.5,-2.73,-4.29,-4.37,0,*56
1517141314.24,44360,9.5,73930.5,-2.77,-4.57,-4.61,0,*52
1517141315.49,44361,9.5,73916.8,-2.75,-4.65,-4.77,0,*57